This demonstration page uses our WeatherBlox Daily Observations layout. Learn more.

Left ArrowRight Arrow

53.62937, 11.41316

Hourly Observations for September 22, 2021

Temp ( °F °C ) Dew Point ( °F °C ) Humidity (%) Winds ( mph kmh ) Pressure ( in mb ) Visibility ( mi km ) Precip ( " mm )
7:50 am 07:50 Mostly Cloudy 50 10 50 10 100 100 SW 2 4 30.33 1027 30 48 N/A
8:20 am 08:20 Mostly Cloudy 52 11 52 11 100 100 SW 3 6 30.33 1027 30 48 N/A
8:50 am 08:50 Partly Cloudy 52 11 52 11 100 100 SW 3 6 30.33 1027 30 48 N/A
9:20 am 09:20 Mostly Sunny 54 12 54 12 100 100 SSW 3 6 30.33 1027 30 48 N/A
9:50 am 09:50 Mostly Sunny 55 13 54 12 94 94 SW 7 11 30.33 1027 30 48 N/A
10:20 am 10:20 Mostly Sunny 57 14 55 13 94 94 SSW 6 9 30.33 1027 7 11 N/A
10:50 am 10:50 Mostly Sunny 59 15 54 12 82 82 SW 6 9 30.33 1027 30 48 N/A
11:20 am 11:20 Mostly Sunny 61 16 55 13 83 83 SW 7 11 30.30 1026 30 48 N/A
11:50 am 11:50 Partly Cloudy 61 16 55 13 83 83 SW 7 11 30.30 1026 30 48 N/A
12:20 pm 12:20 Partly Cloudy 63 17 55 13 77 77 SW 10 17 30.30 1026 30 48 N/A
12:50 pm 12:50 Partly Cloudy 63 17 54 12 73 73 SW 8 13 30.30 1026 30 48 N/A
1:20 pm 13:20 Partly Cloudy 64 18 54 12 68 68 WSW 7 11 30.30 1026 30 48 N/A
1:50 pm 13:50 Partly Cloudy 66 19 54 12 64 64 WSW 7 11 30.30 1026 30 48 N/A
2:20 pm 14:20 Partly Cloudy 64 18 54 12 68 68 SW 8 13 30.27 1025 30 48 N/A
2:50 pm 14:50 Partly Cloudy 64 18 54 12 68 68 SW 7 11 30.27 1025 30 48 N/A
3:20 pm 15:20 Partly Cloudy 64 18 54 12 68 68 SW 12 19 30.27 1025 30 48 N/A
3:50 pm 15:50 Partly Cloudy 64 18 54 12 68 68 SW 13 20 30.24 1024 30 48 N/A
4:20 pm 16:20 Mostly Sunny 66 19 54 12 64 64 SW 8 13 30.24 1024 30 48 N/A
4:50 pm 16:50 Mostly Sunny 66 19 54 12 64 64 SW 10 17 30.24 1024 30 48 N/A
5:20 pm 17:20 Mostly Sunny 66 19 54 12 64 64 SW 9 15 30.21 1023 7 11 N/A
5:50 pm 17:50 Mostly Sunny 66 19 52 11 60 60 SW 10 17 30.21 1023 7 11 N/A
6:20 pm 18:20 Mostly Sunny 64 18 54 12 68 68 SW 6 9 30.21 1023 7 11 N/A
6:50 pm 18:50 Mostly Sunny 63 17 54 12 73 73 SSW 6 9 30.18 1022 7 11 N/A
7:20 pm 19:20 Mostly Clear 59 15 52 11 77 77 SW 3 6 30.18 1022 7 11 N/A
7:50 pm 19:50 Mostly Clear 59 15 52 11 77 77 SSW 5 7 30.18 1022 7 11 N/A
8:20 pm 20:20 Mostly Clear 59 15 52 11 77 77 S 6 9 30.18 1022 7 11 N/A
8:50 pm 20:50 Mostly Clear 57 14 52 11 82 82 S 6 9 30.18 1022 7 11 N/A
9:20 pm 21:20 Mostly Clear 57 14 52 11 82 82 S 6 9 30.18 1022 7 11 N/A
9:50 pm 21:50 Mostly Clear 57 14 52 11 82 82 S 7 11 30.15 1021 7 11 N/A

Powered by AerisWeather